Wind_Speed
15 15 14 15 17 17 18 18 17 15 14 14 14 13 11 9 8 8 6 6 7 8 7 7 7 7 7 6 6 6 5 5 5 4 4 4 4 4 4 4 4 4 4 4 4 5 5 5 6
14 14 14 16 20 19 20 19 17 14 14 14 14 13 11 9 8 7 6 6 7 7 7 7 7 7 6 6 6 6 5 5 5 4 4 3 3 3 3 4 3 4 4 4 4 4 4 5 5
14 14 15 18 19 20 21 20 18 16 15 14 13 13 11 9 8 7 6 7 7 7 7 7 7 6 6 6 6 6 6 5 5 4 4 3 3 3 3 3 3 3 3 3 3 3 4 5 5
11 12 14 17 18 20 21 21 19 17 15 14 13 13 11 9 8 7 6 7 7 7 7 7 7 6 6 6 6 6 6 5 5 5 4 3 3 2 2 3 3 3 3 3 3 3 4 4 4
11 13 15 17 18 19 20 20 19 17 15 14 14 13 11 10 9 8 7 7 7 7 6 6 6 6 6 6 5 5 5 5 5 5 5 4 3 2 2 2 2 3 3 3 3 3 4 4 4
11 14 15 16 17 18 18 19 18 16 15 15 14 14 13 11 9 8 8 8 7 6 6 6 6 6 6 6 5 4 4 4 4 4 5 4 3 3 2 2 2 3 3 3 3 3 3 4 4
11 12 13 15 16 17 18 18 17 16 16 15 15 14 14 12 10 9 8 8 7 6 6 6 6 6 6 6 5 4 4 4 4 4 4 4 3 3 2 2 2 2 3 3 3 3 4 4 4
12 12 12 14 15 16 18 17 16 16 16 15 15 15 14 13 11 9 8 8 7 7 6 6 7 6 6 5 5 4 4 4 3 3 3 3 3 2 2 2 2 2 2 3 3 4 4 5 4
11 10 11 12 12 15 17 17 16 16 16 16 15 15 14 13 11 10 9 8 7 6 6 6 6 6 5 5 5 5 4 3 3 3 3 3 2 2 2 2 2 2 3 3 3 4 4 5 5
10 8 9 9 10 13 15 17 17 16 16 16 15 15 14 14 13 11 10 8 7 7 7 6 6 6 6 5 5 5 4 4 3 2 2 2 2 2 2 1 2 2 3 3 3 3 4 4 4
7 7 7 8 10 12 13 15 17 17 15 15 15 15 14 15 13 12 10 9 8 7 7 7 6 6 6 6 4 4 4 4 3 3 2 2 2 1 1 1 2 2 3 2 3 3 3 4 4
6 5 6 7 9 11 13 14 15 16 15 14 15 15 15 15 13 12 11 9 8 8 8 7 6 5 6 5 4 4 4 3 3 3 3 2 2 1 0 1 1 2 2 2 2 3 3 3 3
5 4 3 5 7 10 12 13 15 15 15 15 15 15 15 14 13 12 11 10 9 8 7 6 6 5 5 4 4 4 3 3 2 2 2 2 1 1 1 1 1 1 2 1 1 2 2 2 2
5 3 3 4 5 8 11 12 14 15 15 15 15 14 14 13 13 13 12 11 11 10 9 7 6 5 5 4 4 3 3 2 1 2 1 1 1 1 1 1 1 1 1 0 0 0 1 1 1
5 3 3 5 5 8 10 11 12 14 14 13 14 14 13 13 13 13 13 12 12 11 9 9 8 6 5 5 4 3 2 2 2 1 1 1 1 2 1 1 1 1 0 1 1 1 0 0 0
7 3 1 3 5 7 9 11 12 12 12 12 12 13 13 13 13 13 13 12 12 11 9 9 9 8 6 5 4 3 2 1 2 2 1 1 1 2 2 2 1 1 1 2 2 2 2 2 1
8 3 0 3 5 7 9 9 11 11 11 12 11 12 12 11 11 12 12 12 11 10 10 9 9 8 7 6 5 4 2 1 1 2 1 1 1 2 3 3 2 2 2 3 3 3 3 3 3
8 4 0 4 6 8 9 9 9 10 10 10 10 11 11 11 10 11 11 11 11 10 10 9 9 8 7 6 5 4 3 2 2 2 2 2 2 3 3 3 4 3 3 4 4 4 4 4 5
9 6 3 1 5 8 9 9 10 10 11 11 11 9 10 10 9 10 10 10 11 11 10 9 9 8 7 7 6 4 3 3 3 3 4 3 3 3 3 4 4 4 4 4 4 5 5 6 6
11 8 5 3 4 6 8 9 10 10 11 11 11 8 9 8 8 9 9 10 11 10 10 10 9 8 7 7 7 5 4 4 4 5 5 4 4 4 4 4 4 5 5 6 6 6 7 8 8
13 10 7 6 6 6 8 9 10 9 10 12 10 9 8 8 8 9 9 9 10 11 11 10 9 8 7 7 7 6 5 5 5 5 6 5 5 5 5 5 6 7 7 7 7 8 8 9 9
15 12 11 9 8 8 9 10 10 10 11 11 10 10 10 8 9 9 9 10 11 11 11 9 9 9 8 7 8 7 7 6 5 4 5 5 4 4 5 6 6 7 7 8 9 9 10 11 11
16 16 14 12 11 9 10 11 10 12 12 10 9 10 10 9 9 9 9 10 11 11 10 10 10 10 9 8 8 8 7 6 5 4 4 4 3 4 4 5 5 6 6 8 9 10 11 11 12
17 17 15 13 12 10 11 11 11 11 10 9 8 9 10 10 10 9 9 10 10 10 10 10 10 10 9 9 8 8 8 7 5 5 4 5 4 4 4 5 6 6 8 9 10 10 11 12 13
18 17 15 14 12 10 10 10 9 9 9 8 8 9 9 10 10 10 10 10 10 10 10 10 10 10 10 9 9 8 7 7 6 5 5 5 5 5 5 6 7 8 9 10 11 12 12 13 14
19 18 16 15 13 10 10 10 10 9 9 8 8 8 9 8 9 10 9 10 10 10 11 11 10 10 10 9 9 8 7 6 6 5 6 6 6 6 6 7 9 9 10 11 11 12 13 14 14
19 19 18 17 15 12 11 11 11 10 9 9 8 8 8 7 9 10 10 10 10 10 10 11 11 11 10 9 8 8 7 7 7 6 6 6 7 7 7 8 9 10 10 11 11 12 13 14 15
19 19 20 19 17 15 13 12 12 12 11 9 7 7 7 8 9 10 10 10 10 11 11 11 11 10 10 9 9 8 8 8 8 7 8 7 8 8 8 8 9 10 11 12 12 13 13 14 15
20 20 21 20 19 17 15 14 13 12 10 9 8 8 7 8 10 11 10 11 10 10 11 11 11 11 11 10 9 9 8 9 8 8 8 8 8 8 8 9 10 11 11 12 13 14 15 16 16
20 20 21 21 20 19 18 16 15 13 12 12 12 10 8 8 10 10 10 10 10 10 10 11 11 11 11 10 10 10 9 9 8 8 9 9 9 8 9 10 11 12 12 13 14 15 16 17 18
Wind_Direction
80 71 65 60 55 51 49 53 52 49 46 43 42 47 50 51 59 66 67 75 78 80 80 77 72 66 59 49 43 39 37 37 37 38 44 53 55 58 60 66 72 80 82 86 90 90 92 91 89
77 67 62 59 53 50 50 51 53 48 46 45 45 46 49 53 60 68 71 71 75 77 77 75 69 64 58 48 40 35 32 32 33 33 44 54 55 53 56 66 72 80 84 91 91 87 92 93 90
74 65 61 57 51 47 47 49 48 43 42 44 44 44 45 51 54 60 66 67 68 70 71 70 65 61 54 47 42 38 34 32 33 38 48 52 51 53 59 73 79 84 85 87 90 86 87 89 90
76 66 61 56 49 46 44 44 43 38 38 41 43 43 42 45 50 55 61 62 62 66 66 66 64 57 51 46 45 41 37 35 37 42 41 41 48 55 64 77 84 85 86 90 90 84 87 88 91
74 62 58 55 49 44 41 42 40 35 34 37 42 42 41 42 46 49 55 49 51 61 61 59 57 52 46 43 45 45 42 37 39 40 40 43 46 50 64 75 83 84 84 89 81 77 87 90 91
71 64 58 53 47 45 43 40 39 33 33 35 41 42 41 45 44 42 48 42 46 53 52 53 50 46 43 39 41 46 46 42 41 40 39 41 41 50 60 67 69 74 81 83 80 74 85 88 86
75 65 58 52 48 44 40 37 37 33 32 33 38 41 43 46 44 39 41 43 46 48 50 51 46 41 40 39 43 44 42 42 40 35 36 43 42 47 53 66 69 77 81 86 88 78 84 92 90
76 61 54 48 45 41 38 33 32 32 31 33 35 38 42 47 45 42 45 47 48 52 52 52 46 40 38 36 41 42 36 36 32 26 32 41 45 46 48 64 77 78 81 88 89 85 86 92 94
73 56 50 43 34 34 34 28 29 32 31 33 34 35 40 46 46 45 48 50 48 53 51 51 48 43 43 38 34 32 31 33 29 23 27 33 40 37 29 63 83 92 93 95 91 92 93 96 95
68 58 43 32 26 31 32 28 30 31 28 29 32 34 38 45 48 48 52 53 52 52 47 45 44 42 40 38 34 33 31 30 25 15 26 32 30 25 18 63 91 103 102 99 98 95 93 99 93
69 51 36 27 25 28 27 29 30 28 28 30 33 35 37 44 49 52 54 56 54 52 50 44 39 36 34 35 35 37 32 33 30 29 30 27 22 18 27 88 102 109 105 97 101 104 100 104 97
86 59 40 29 17 20 19 24 24 23 25 29 33 35 37 41 46 52 56 58 56 51 49 44 37 33 31 34 34 30 28 27 32 37 36 38 42 50 100 115 111 106 96 95 96 92 92 100 101
109 89 62 31 24 19 14 21 21 20 22 28 32 35 37 39 41 45 50 52 51 49 47 43 37 31 30 34 31 24 22 19 25 43 52 45 57 78 111 126 111 105 92 102 113 86 77 83 100
123 102 72 40 23 15 13 18 19 19 22 27 30 35 38 39 40 40 44 44 42 40 39 38 32 26 25 24 29 22 20 19 26 43 40 64 113 109 91 141 138 116 104 125 132 101 76 97 110
128 115 79 50 15 8 6 9 17 16 20 24 27 31 37 40 40 38 36 34 33 32 33 31 27 26 29 27 25 18 17 24 23 30 34 63 150 163 135 128 149 144 187 220 206 204 244 240 132
145 131 70 24 2 355 357 8 14 15 17 19 22 25 30 35 35 34 33 30 27 27 28 26 25 26 29 29 20 21 23 9 15 20 25 22 223 198 192 187 216 241 255 245 241 242 256 265 268
156 148 337 342 338 330 338 352 5 10 14 14 15 21 23 27 29 29 29 28 25 26 26 26 25 24 28 30 24 25 19 328 332 337 330 309 277 240 227 213 216 245 258 252 253 259 260 262 268
164 146 22 315 313 315 324 336 352 10 13 9 8 13 17 19 23 26 27 25 25 25 24 23 22 21 23 21 19 19 2 329 331 333 315 295 271 254 234 225 222 233 248 256 257 256 258 261 263
170 151 149 306 306 308 313 325 339 359 3 0 358 3 12 14 13 18 21 22 23 22 19 18 16 15 15 15 15 12 352 330 320 322 306 289 269 253 244 248 231 235 245 253 253 251 258 264 266
181 177 183 234 276 285 293 306 321 341 347 348 348 356 8 11 11 10 14 17 14 15 13 10 9 12 12 12 9 4 347 331 321 309 318 294 265 248 243 251 247 248 251 253 258 259 260 262 268
194 195 207 222 233 252 282 296 305 316 330 346 352 359 4 9 6 11 11 10 9 9 6 3 1 360 2 2 0 354 338 328 324 313 303 299 272 255 254 264 260 256 254 258 262 265 265 265 268
205 205 211 219 232 253 273 286 299 308 322 338 348 356 360 2 10 7 10 9 4 2 1 358 359 359 357 357 355 353 343 334 327 317 303 296 282 263 269 270 264 260 255 261 265 267 270 268 268
209 213 219 224 231 247 261 270 289 304 313 326 339 347 353 0 4 4 360 0 360 360 359 358 357 356 353 351 352 353 347 338 328 318 306 299 292 275 272 274 275 266 265 266 268 272 274 275 274
215 220 224 228 231 238 251 262 283 298 307 314 330 340 341 349 349 347 358 356 356 356 355 354 353 352 349 347 347 347 346 339 330 323 312 300 288 279 278 281 281 281 279 274 271 274 278 279 279
218 223 225 224 225 229 245 262 281 288 295 305 323 332 334 344 347 349 352 356 349 353 355 354 352 351 350 349 347 345 344 339 330 321 311 304 294 285 288 292 285 287 287 282 278 279 280 279 278
221 224 225 223 220 225 239 263 278 284 287 293 311 322 330 342 345 347 357 354 355 354 357 353 350 348 347 345 344 344 341 339 334 329 317 308 304 294 290 293 293 294 296 289 284 280 279 280 281
220 224 226 225 221 227 242 264 275 279 277 279 289 300 322 336 341 347 350 350 351 351 354 353 348 348 347 346 343 343 346 344 338 332 322 308 303 297 292 294 294 294 298 297 293 290 286 285 285
220 222 223 224 222 230 246 260 276 275 267 270 268 284 315 330 339 340 339 339 343 348 351 354 352 350 353 351 348 345 340 338 334 332 328 312 301 297 296 296 296 296 298 295 295 293 293 292 290
218 221 224 225 226 231 244 258 275 280 285 288 286 292 312 324 335 334 331 330 335 340 344 349 354 355 353 351 345 341 338 336 335 335 330 324 312 307 302 302 301 301 301 299 295 293 292 292 291
219 223 228 229 228 232 243 255 268 280 292 294 300 303 311 318 328 324 321 322 329 337 335 337 345 350 350 350 344 341 340 338 335 332 329 326 318 310 305 302 303 303 301 298 296 294 293 292 292
Height
5916 5915 5915 5916 5915 5913 5912 5912 5911 5910 5910 5908 5907 5907 5907 5907 5906 5908 5906 5904 5904 5903 5903 5904 5904 5903 5903 5903 5903 5903 5903 5902 5902 5901 5901 5900 5900 5900 5899 5899 5898 5898 5897 5897 5897 5896 5896 5895 5895
5918 5918 5918 5917 5915 5915 5914 5913 5913 5912 5911 5910 5910 5909 5908 5907 5906 5906 5906 5905 5904 5904 5904 5905 5905 5904 5904 5904 5904 5904 5904 5903 5903 5902 5902 5901 5901 5901 5900 5900 5899 5899 5898 5898 5898 5897 5897 5896 5896
5920 5920 5920 5918 5916 5917 5916 5915 5915 5913 5913 5912 5912 5911 5910 5908 5907 5907 5907 5906 5905 5905 5906 5906 5906 5905 5905 5905 5905 5905 5905 5904 5904 5903 5903 5902 5902 5902 5901 5900 5900 5900 5899 5899 5899 5898 5898 5897 5897
5923 5923 5921 5919 5918 5918 5917 5917 5916 5915 5915 5914 5913 5912 5911 5910 5908 5908 5907 5907 5907 5907 5907 5907 5907 5907 5906 5906 5906 5906 5906 5905 5905 5904 5904 5903 5903 5902 5902 5901 5901 5900 5900 5900 5899 5899 5898 5898 5898
5925 5924 5922 5920 5919 5919 5919 5919 5918 5917 5916 5915 5914 5913 5912 5910 5909 5909 5908 5908 5908 5908 5908 5908 5908 5907 5907 5907 5907 5907 5906 5906 5906 5905 5905 5904 5904 5903 5902 5902 5901 5901 5901 5901 5900 5900 5899 5899 5899
5927 5925 5924 5923 5922 5921 5921 5921 5920 5919 5918 5917 5916 5915 5913 5912 5910 5910 5909 5909 5909 5909 5909 5909 5908 5908 5908 5907 5907 5907 5907 5907 5906 5906 5905 5905 5904 5904 5903 5903 5902 5902 5902 5901 5901 5900 5900 5900 5900
5929 5928 5926 5925 5924 5923 5923 5923 5922 5921 5920 5918 5917 5916 5915 5913 5912 5911 5911 5910 5910 5910 5910 5910 5909 5909 5908 5908 5908 5907 5907 5907 5907 5906 5906 5905 5905 5904 5904 5903 5903 5903 5902 5902 5902 5901 5901 5901 5901
5929 5930 5928 5927 5927 5926 5926 5925 5924 5923 5921 5919 5918 5917 5916 5915 5913 5912 5912 5911 5911 5911 5911 5910 5910 5909 5909 5908 5908 5908 5907 5907 5907 5907 5906 5906 5905 5905 5904 5904 5904 5903 5903 5903 5902 5902 5902 5902 5901
5930 5931 5929 5929 5929 5928 5927 5927 5926 5924 5923 5921 5919 5918 5917 5916 5915 5913 5913 5912 5912 5912 5912 5911 5910 5910 5909 5909 5908 5908 5908 5907 5907 5907 5907 5906 5906 5905 5905 5905 5904 5904 5904 5904 5903 5903 5903 5903 5903
5931 5931 5931 5931 5931 5930 5929 5928 5927 5925 5924 5922 5921 5919 5918 5917 5916 5915 5914 5913 5913 5912 5912 5911 5911 5910 5909 5909 5909 5908 5908 5907 5907 5907 5907 5906 5906 5906 5906 5905 5905 5905 5905 5904 5904 5904 5905 5904 5904
5932 5933 5933 5932 5932 5932 5931 5930 5929 5927 5926 5924 5922 5921 5919 5918 5917 5917 5916 5915 5914 5913 5913 5912 5911 5911 5910 5909 5909 5908 5908 5908 5907 5907 5907 5907 5906 5906 5906 5906 5906 5906 5905 5905 5905 5905 5905 5905 5905
5934 5935 5935 5934 5933 5933 5933 5932 5931 5929 5928 5926 5924 5922 5920 5919 5919 5918 5918 5917 5916 5915 5914 5913 5912 5911 5910 5909 5909 5908 5908 5908 5907 5907 5907 5907 5906 5906 5906 5906 5906 5906 5906 5906 5906 5906 5906 5906 5906
5934 5935 5936 5936 5935 5935 5934 5934 5933 5931 5929 5927 5925 5924 5922 5921 5920 5919 5918 5918 5916 5915 5914 5914 5913 5912 5911 5910 5909 5909 5908 5908 5907 5907 5907 5907 5907 5907 5907 5907 5907 5907 5907 5906 5906 5906 5906 5907 5907
5935 5936 5936 5937 5936 5936 5936 5935 5934 5932 5930 5929 5927 5925 5924 5923 5921 5919 5918 5917 5916 5915 5914 5913 5912 5911 5910 5910 5909 5909 5908 5907 5907 5907 5907 5907 5907 5907 5907 5907 5907 5907 5907 5907 5907 5907 5907 5907 5907
5936 5937 5937 5937 5937 5937 5937 5936 5935 5934 5932 5930 5929 5927 5925 5924 5922 5920 5919 5917 5916 5915 5914 5913 5912 5911 5910 5910 5909 5908 5908 5907 5907 5907 5906 5906 5907 5907 5907 5907 5907 5907 5907 5907 5907 5907 5907 5907 5907
5937 5937 5937 5938 5937 5937 5939 5937 5936 5935 5933 5932 5930 5929 5927 5925 5923 5921 5920 5918 5917 5915 5914 5913 5912 5911 5910 5909 5909 5908 5908 5907 5907 5906 5906 5906 5906 5906 5906 5906 5907 5907 5907 5907 5907 5907 5907 5906 5906
5937 5937 5937 5937 5937 5937 5937 5937 5936 5935 5933 5932 5931 5929 5928 5926 5925 5923 5921 5920 5918 5917 5915 5913 5912 5911 5909 5909 5908 5908 5907 5907 5906 5906 5906 5906 5906 5906 5905 5905 5905 5906 5906 5906 5906 5906 5906 5906 5906
5936 5936 5936 5937 5937 5937 5936 5936 5936 5935 5933 5933 5932 5930 5928 5927 5926 5924 5923 5921 5920 5918 5916 5914 5912 5911 5910 5909 5908 5907 5907 5906 5905 5905 5905 5905 5905 5905 5905 5904 5904 5905 5905 5905 5905 5905 5905 5905 5905
5934 5935 5936 5937 5937 5937 5936 5935 5935 5935 5934 5933 5932 5931 5929 5927 5926 5925 5923 5922 5920 5918 5916 5914 5913 5911 5910 5909 5908 5907 5906 5905 5904 5904 5904 5904 5904 5904 5904 5903 5903 5903 5904 5903 5903 5904 5904 5904 5904
5933 5934 5935 5936 5936 5935 5935 5934 5934 5934 5934 5933 5932 5931 5929 5928 5926 5925 5923 5921 5920 5918 5916 5914 5912 5911 5909 5908 5907 5906 5905 5904 5903 5903 5902 5902 5902 5902 5902 5902 5902 5902 5902 5902 5902 5902 5902 5902 5902
5931 5932 5934 5934 5934 5934 5934 5933 5933 5933 5933 5933 5932 5930 5929 5928 5926 5925 5923 5921 5920 5918 5916 5914 5912 5910 5908 5907 5906 5905 5904 5903 5902 5901 5901 5900 5900 5900 5900 5900 5900 5900 5900 5900 5900 5900 5900 5900 5900
5929 5931 5932 5932 5932 5933 5933 5933 5932 5931 5931 5932 5931 5930 5928 5927 5927 5924 5922 5921 5919 5917 5915 5913 5912 5909 5908 5906 5905 5904 5903 5901 5900 5899 5899 5899 5899 5899 5899 5899 5899 5898 5898 5899 5898 5898 5898 5897 5897
5927 5928 5929 5930 5931 5931 5931 5931 5932 5930 5930 5931 5930 5929 5928 5927 5926 5925 5922 5921 5919 5917 5915 5913 5911 5909 5907 5905 5904 5903 5901 5900 5899 5898 5898 5897 5897 5897 5897 5897 5897 5897 5896 5896 5896 5896 5895 5895 5894
5924 5926 5927 5928 5929 5930 5930 5930 5930 5929 5929 5929 5929 5928 5928 5926 5925 5923 5921 5920 5918 5916 5914 5912 5910 5908 5906 5904 5903 5901 5900 5899 5898 5897 5896 5896 5896 5896 5895 5895 5895 5894 5894 5894 5894 5893 5892 5892 5891
5921 5924 5925 5926 5927 5928 5928 5928 5929 5927 5927 5927 5927 5927 5927 5925 5924 5922 5921 5919 5917 5915 5913 5911 5909 5907 5905 5903 5902 5900 5899 5897 5897 5896 5895 5895 5894 5894 5894 5893 5893 5892 5892 5891 5891 5890 5889 5888 5887
5918 5920 5923 5924 5925 5925 5925 5925 5926 5925 5926 5926 5926 5926 5925 5924 5923 5921 5919 5918 5916 5914 5912 5910 5908 5906 5903 5902 5900 5899 5897 5896 5895 5894 5894 5893 5892 5892 5891 5891 5891 5890 5889 5888 5887 5886 5886 5885 5884
5914 5916 5919 5921 5921 5922 5922 5923 5923 5923 5923 5923 5924 5924 5924 5922 5921 5920 5918 5916 5915 5913 5911 5909 5907 5905 5902 5900 5898 5897 5896 5895 5894 5893 5892 5891 5890 5890 5889 5889 5888 5887 5886 5885 5884 5883 5882 5881 5880
5910 5912 5914 5916 5918 5919 5919 5920 5920 5920 5920 5920 5921 5922 5922 5921 5920 5918 5917 5915 5914 5912 5910 5908 5906 5904 5901 5899 5897 5896 5894 5893 5892 5891 5890 5889 5888 5888 5887 5886 5885 5884 5883 5882 5881 5880 5879 5877 5876
5906 5908 5910 5912 5914 5916 5916 5919 5918 5917 5918 5918 5918 5919 5919 5918 5918 5917 5915 5914 5913 5911 5910 5908 5905 5903 5900 5898 5896 5895 5893 5892 5890 5889 5888 5887 5886 5885 5884 5883 5882 5881 5880 5879 5878 5876 5875 5873 5872
5901 5904 5906 5909 5911 5912 5913 5917 5914 5914 5915 5916 5916 5916 5916 5916 5915 5915 5914 5912 5911 5909 5908 5906 5904 5901 5899 5897 5895 5893 5892 5890 5889 5887 5886 5885 5883 5882 5881 5880 5879 5878 5877 5875 5874 5872 5871 5869 5867